San Antonio, TX

5:17 AM CST on February 26, 2017 (GMT -0600)
Stinson Municipal

Weather History for KSSF - September, 2014

Change the Weather History Date:

Thursday, September 4, 2014

  Actual Average Record
Temperature  
Mean Temperature 80 °F -  
Max Temperature 87 °F 90 °F 109 °F (2000)
Min Temperature 73 °F 70 °F 71 °F (2001)
Cooling Degree Days 14    
Growing Degree Days 30 (Base 50)    
Moisture  
Dew Point 73 °F    
Average Humidity 83    
Maximum Humidity 94    
Minimum Humidity 67    
Precipitation  
Precipitation 0.17 in - - ()
Sea Level Pressure  
Sea Level Pressure 29.98 in    
Wind  
Wind Speed 4 mph (ESE)    
Max Wind Speed 22 mph    
Max Gust Speed 36 mph    
Visibility 10 miles    
Events Rain , Thunderstorm    
Averages and records for this station are not official NWS values.
T = Trace of Precipitation, MM = Missing Value Source: NWS Daily Summary

Daily Weather History Graph

Daily Weather History Graph

Search for Another Location

Airport or City:

Trip Planner

Search our weather history database for the weather conditions in past years. The results will help you decide how hot, cold, wet, or windy it might be!

Date:

Astronomy

Sep. 04, 2014 Rise Set
Actual Time 7:13 AM CDT 7:52 PM CDT
Civil Twilight 6:48 AM CDT 8:16 PM CDT
Nautical Twilight 6:20 AM CDT 8:44 PM CDT
Astronomical Twilight 5:51 AM CDT 9:13 PM CDT
Moon 4:17 PM CDT (9/4) 2:19 AM CDT (9/4)
Length of Visible Light 13h 27m
Length of Day
12h 39m
Waxing Gibbous, 74% of the Moon is Illuminated
Sep 4
Waxing Gibbous
Sep 8
Full
Sep 15
Last Quarter
Sep 24
New
Oct 1
First Quarter

Hourly Weather History & Observations

Time (CDT) Temp. Heat Index Dew Point Humidity Pressure Visibility Wind Dir Wind Speed Gust Speed Precip Events Conditions
12:17 AM 78.1 °F - 73.0 °F 84% 29.99 in 10.0 mi Calm Calm - N/A   Scattered Clouds
12:53 AM 78.1 °F - 73.0 °F 84% 29.95 in 10.0 mi Calm Calm - N/A   Mostly Cloudy
1:19 AM 78.1 °F - 73.0 °F 84% 29.98 in 10.0 mi Calm Calm - N/A   Partly Cloudy
1:53 AM 75.9 °F - 73.0 °F 91% 29.94 in 10.0 mi SSE 3.5 mph - N/A   Clear
2:40 AM 77.0 °F - 73.9 °F 90% 29.97 in 10.0 mi East 3.5 mph - N/A   Mostly Cloudy
2:43 AM 77.0 °F - 73.9 °F 90% 29.97 in 10.0 mi East 3.5 mph - N/A   Mostly Cloudy
2:53 AM 77.0 °F - 73.9 °F 90% 29.93 in 10.0 mi Calm Calm - N/A   Mostly Cloudy
3:10 AM 77.0 °F - 73.9 °F 90% 29.96 in 10.0 mi East 4.6 mph - N/A   Scattered Clouds
3:22 AM 77.0 °F - 73.9 °F 90% 29.96 in 10.0 mi East 3.5 mph - N/A   Mostly Cloudy
3:30 AM 77.0 °F - 73.9 °F 90% 29.96 in 10.0 mi East 3.5 mph - N/A   Scattered Clouds
3:46 AM 75.9 °F - 73.0 °F 91% 29.96 in 10.0 mi Calm Calm - N/A   Mostly Cloudy
3:53 AM 75.9 °F - 73.0 °F 91% 29.92 in 10.0 mi Calm Calm - N/A   Mostly Cloudy
4:00 AM 75.9 °F - 73.9 °F 94% 29.96 in 10.0 mi East 3.5 mph - N/A   Scattered Clouds
4:08 AM 77.0 °F - 73.9 °F 90% 29.96 in 10.0 mi East 3.5 mph - N/A   Mostly Cloudy
4:29 AM 77.0 °F - 75.0 °F 94% 29.96 in 9.0 mi East 3.5 mph - N/A   Scattered Clouds
4:53 AM 75.9 °F - 73.9 °F 94% 29.93 in 8.0 mi East 4.6 mph - N/A   Mostly Cloudy
5:00 AM 77.0 °F - 75.0 °F 94% 29.95 in 8.0 mi East 4.6 mph - N/A   Overcast
5:53 AM 78.1 °F - 75.9 °F 93% 29.92 in 9.0 mi Calm Calm - N/A   Overcast
7:53 AM 78.1 °F - 75.9 °F 93% 29.95 in 9.0 mi ESE 4.6 mph - N/A   Overcast
8:01 AM 78.1 °F - 75.9 °F 93% 29.99 in 10.0 mi ESE 8.1 mph - N/A   Overcast
8:23 AM 79.0 °F - 75.9 °F 90% 30.00 in 10.0 mi SE 8.1 mph - N/A   Overcast
8:53 AM 81.0 °F 87.3 °F 75.9 °F 85% 29.97 in 10.0 mi SE 9.2 mph - N/A   Scattered Clouds
9:37 AM 84.0 °F 91.9 °F 75.0 °F 74% 30.01 in 10.0 mi ESE 11.5 mph - N/A   Mostly Cloudy
9:53 AM 84.0 °F 91.9 °F 75.0 °F 74% 29.98 in 10.0 mi SE 11.5 mph - N/A   Overcast
10:28 AM 84.9 °F 92.1 °F 73.9 °F 69% 30.02 in 10.0 mi SSE 11.5 mph - N/A   Mostly Cloudy
10:50 AM 84.2 °F 90.9 °F 73.4 °F 70% 30.03 in 10.0 mi SSE 12.7 mph - 0.00 in Rain , Thunderstorm Light Rain
10:53 AM 84.0 °F 91.2 °F 73.9 °F 72% 29.99 in 10.0 mi SSE 10.4 mph - 0.00 in Rain , Thunderstorm Light Rain
11:05 AM 84.9 °F 92.1 °F 73.9 °F 69% 30.02 in 10.0 mi South 8.1 mph - 0.00 in   Mostly Cloudy
11:14 AM 86.0 °F 93.8 °F 73.9 °F 67% 30.03 in 10.0 mi SE 8.1 mph - 0.00 in   Mostly Cloudy
11:25 AM 84.9 °F 92.1 °F 73.9 °F 69% 30.03 in 10.0 mi ESE 9.2 mph - 0.00 in   Mostly Cloudy
11:34 AM 84.9 °F 92.1 °F 73.9 °F 69% 30.03 in 10.0 mi SE 12.7 mph - 0.00 in Thunderstorm Thunderstorm
11:46 AM 75.9 °F - 71.1 °F 85% 30.05 in 1.8 mi ESE 18.4 mph 35.7 mph 0.10 in Rain , Thunderstorm Heavy Thunderstorms and Rain
11:53 AM 73.9 °F - 70.0 °F 87% 30.01 in 1.2 mi SE 13.8 mph 27.6 mph 0.15 in Rain , Thunderstorm Thunderstorms and Rain
12:21 PM 75.9 °F - 72.0 °F 87% 30.03 in 10.0 mi Calm Calm - 0.02 in Rain , Thunderstorm Light Rain
12:30 PM 78.1 °F - 72.0 °F 81% 30.02 in 10.0 mi SSE 3.5 mph - 0.02 in   Scattered Clouds
12:53 PM 78.1 °F - 73.9 °F 87% 29.99 in 10.0 mi East 4.6 mph - 0.02 in   Clear
1:53 PM 86.0 °F 93.8 °F 73.9 °F 67% 29.97 in 10.0 mi East 10.4 mph 18.4 mph N/A   Clear
2:13 PM 82.9 °F 88.0 °F 72.0 °F 69% 30.04 in 10.0 mi South 21.9 mph 31.1 mph N/A Thunderstorm Partly Cloudy
2:25 PM 77.0 °F - 66.9 °F 71% 30.02 in 8.0 mi South 12.7 mph 31.1 mph 0.00 in Rain , Thunderstorm Rain
2:53 PM 73.9 °F - 70.0 °F 87% 29.97 in 10.0 mi Calm Calm - 0.00 in Thunderstorm Scattered Clouds
3:00 PM 73.9 °F - 70.0 °F 87% 30.00 in 10.0 mi WSW 3.5 mph - N/A   Partly Cloudy
3:32 PM 75.9 °F - 70.0 °F 82% 29.98 in 10.0 mi NNE 3.5 mph - N/A Thunderstorm Thunderstorm
3:53 PM 75.9 °F - 71.1 °F 85% 29.95 in 10.0 mi Calm Calm - 0.00 in Rain Light Rain
4:53 PM 79.0 °F - 73.0 °F 82% 29.94 in 10.0 mi NNE 3.5 mph - 0.00 in   Partly Cloudy
5:53 PM 82.0 °F 86.7 °F 72.0 °F 71% 29.93 in 10.0 mi East 5.8 mph - N/A   Clear
6:53 PM 84.9 °F 91.4 °F 73.0 °F 67% 29.92 in 10.0 mi East 10.4 mph - N/A   Clear
7:53 PM 82.9 °F 88.8 °F 73.0 °F 72% 29.94 in 10.0 mi ESE 9.2 mph - N/A   Clear
8:53 PM 81.0 °F 86.2 °F 73.9 °F 79% 29.94 in 10.0 mi East 6.9 mph - N/A   Clear
9:53 PM 80.1 °F 84.5 °F 73.9 °F 81% 29.96 in 10.0 mi East 5.8 mph - N/A   Clear
10:53 PM 80.1 °F 84.5 °F 73.9 °F 81% 29.97 in 10.0 mi ESE 9.2 mph - N/A   Clear
11:53 PM 78.1 °F - 73.9 °F 87% 29.99 in 10.0 mi ESE 5.8 mph - N/A   Clear